weather.gov     
National Weather Service

Regional Weather Roundup
NWS Homepage
This page is being discontinued on March 12, 2014.
The same data is available at this site. Please update your bookmarks.
Thank you, and we apologize for the inconvenience.
Please send an email to SR-SRH.Webmaster@noaa.gov with any concerns.


Current Version
Previous Version:    01  02  03  04  05  06  07  08  09  10  11  12  13  14  15  16  17  18  19  20  21  22  23  24  25  26  27  28  29  30  
   31  32  33  34  35  36  37  38  39  40  41  42  43  44  45  46  47  48  49  50  51  52  53  54  55  56  57  58  59  60  
[Printable]
576
ASUS43 KBIS 231420
RWRBIS

NWR BROADCAST TEXT
NATIONAL WEATHER SERVICE BISMARCK ND
900 AM CDT TUE SEP 23 2014

NOTE: "FAIR" INDICATES FEW OR NO CLOUDS BELOW 12,000 FEET WITH NO
SIGNIFICANT WEATHER AND/OR OBSTRUCTIONS TO VISIBILITY.


CITY           SKY/WX    TMP DP  RH WIND       PRES   REMARKS
WILLISTON      SUNNY     55  49  80 NE3       29.85S
MINOT          SUNNY     55  50  83 SE7       29.88S
MINOT AFB      SUNNY     55  55  99 SE9       29.88S
BISMARCK       SUNNY     63  56  78 SE6       29.93R
DICKINSON      SUNNY     54  52  93 S8        29.87S
GARRISON         N/A     58  55  90 S8        29.90R
HETTINGER ARPT MOSUNNY   56  54  93 SE6       29.92R
JAMESTOWN      MOSUNNY   59  52  77 S14       29.99R
BEACH            N/A     54  54 100 S5        29.88S
CARRINGTON     FAIR      57  55  94 SE13      29.98S
CROSBY         FAIR      54  54 100 S6        29.86S
HARVEY         FAIR      57  54  88 SE10      29.94R
HAZEN          FAIR      55  54  94 CALM      29.91S
LINTON         PTSUNNY   59  55  88 SE8       29.95S
MANDAN         FAIR      61  55  82 S10G17    29.94R
OAKES            N/A     61  57  88 S12       30.02S
RUGBY          FAIR      57  54  88 S8        29.92F
STANLEY        FAIR      54  54 100 S6        29.89R
TIOGA          FAIR      50  50 100 NE3       29.91R
WATFORD CITY   FAIR      54  50  87 SE8       29.85S
$$

CITY           SKY/WX    TMP DP  RH WIND       PRES   REMARKS
GRAND FORKS    SUNNY     57  50  77 S14       30.02S
GRAND FORKS AF SUNNY     56  52  86 S12       30.02S
DEVILS LAKE    SUNNY     61  50  67 S10       29.96S
FARGO          SUNNY     59  49  69 SE14      30.05S
CANDO          FAIR      57  54  88 SE13      29.95F
CAVALIER       FAIR      55  50  82 S12       29.99S
GRAFTON        FAIR      55  50  82 S15       30.01S
GWINNER        PTSUNNY   61  55  82 SE9       30.05R
LANGDON        FAIR      59  52  77 S17       29.97S
ROLLA          FAIR      55  54  94 S13G18    29.94F
$$

CITY           SKY/WX    TMP DP  RH WIND       PRES   REMARKS
ABERDEEN       LGT RAIN  59  56  89 SE8       30.03R
MOBRIDGE       CLOUDY    63  57  81 SE12      29.92F
BUFFALO          N/A     59  55  87 SE7       29.85R
RAPID CITY     PTSUNNY   59  55  87 E5        29.93R
GLASGOW        CLEAR     47  45  93 W5        29.86R
SIDNEY         SUNNY     55  48  76 CALM      29.88R
WOLF POINT     SUNNY     49  46  90 CALM      29.86R
GLENDIVE       MOSUNNY   57  52  82 CALM      29.88S
MILES CITY     PTSUNNY   56  49  77 CALM      29.88R
BAKER          MOSUNNY   55  50  83 CALM      29.90R
$$

CITY           SKY/WX    TMP DP  RH WIND       PRES   REMARKS
BILLINGS       MOCLDY    59  46  62 SW15      29.98R
GREAT FALLS    CLEAR     59  47  64 SW13      29.98R
REGINA         MOSUNNY   52  48  87 SE10      29.83
ESTEVAN        SUNNY     52  50  93 SE6       29.87R
$$





U.S. Dept. of Commerce
NOAA National Weather Service
1325 East West Highway
Silver Spring, MD 20910
E-mail: w-nws.webmaster@noaa.gov
Page last modified: May 16, 2007
NATIONAL WEATHER SERVICE: for Safety, for Work, for Fun - FOR LIFE